Probability
0 0 0 0 0 0 0 0 1 2 2 3 3 3 2 1 0 0 0 0 0 0 0 0 0 0 0 0 0 0 0 0 0 0 0 0 0 0 0 0 0 0 0
0 0 0 0 0 0 0 0 0 1 1 2 3 2 1 0 0 0 0 0 0 0 0 0 0 0 0 0 0 0 0 0 0 0 0 0 0 0 0 0 0 0 0
0 0 0 0 0 0 0 0 0 0 0 1 2 1 0 0 0 0 0 0 0 0 0 0 0 0 0 0 0 0 0 0 0 0 0 0 0 0 0 0 0 0 0
0 0 0 0 0 0 0 0 0 0 0 1 2 1 0 0 0 0 0 0 0 0 0 0 0 0 0 0 0 0 0 0 0 0 0 0 0 0 0 0 0 0 0
0 0 0 0 0 0 0 0 0 0 1 2 2 1 0 0 0 0 0 0 0 0 0 0 0 0 0 0 0 0 0 0 0 0 0 0 0 0 0 0 0 0 0
0 0 0 0 0 0 0 0 0 0 1 2 3 1 0 0 0 0 0 0 0 0 0 0 0 0 0 0 0 0 0 0 0 0 0 0 0 0 0 0 0 0 0
0 0 0 0 0 0 0 0 0 0 1 2 3 2 1 0 0 0 0 0 0 0 0 0 0 0 0 0 0 0 0 0 0 0 0 0 0 0 0 0 0 0 0
0 0 0 0 0 0 0 0 0 0 0 1 2 1 1 0 0 0 0 0 0 0 0 0 0 0 0 0 0 0 0 0 0 0 0 0 0 0 0 0 0 0 0
0 0 0 0 0 0 0 0 0 0 0 0 0 0 0 0 0 0 0 0 0 0 0 0 0 0 0 0 0 0 0 0 0 0 0 0 0 0 0 0 0 0 0
0 0 0 0 0 0 0 0 0 0 0 0 0 0 0 0 0 0 0 0 0 0 0 0 0 0 0 0 0 0 0 0 0 0 0 0 0 0 0 0 0 0 0
0 0 0 0 0 0 0 0 0 0 0 0 0 0 0 0 0 0 0 0 0 0 0 0 0 0 0 0 0 0 0 0 0 0 0 0 0 0 0 0 0 0 0
0 0 0 0 0 0 0 0 0 0 0 0 0 0 0 0 0 0 0 0 0 0 0 0 0 0 0 0 0 0 0 0 0 0 0 0 0 0 0 0 0 0 0
0 0 0 0 0 0 0 0 0 0 0 0 0 0 0 0 0 0 0 0 0 0 0 0 0 0 0 0 0 0 0 0 0 0 0 0 0 0 0 0 0 0 0
0 0 0 0 0 0 0 0 0 0 0 0 0 0 0 0 0 0 0 0 0 0 0 0 0 0 0 0 0 0 0 0 0 0 0 0 0 0 0 0 0 0 0
0 0 0 0 0 0 0 0 0 0 0 0 0 0 0 0 0 0 0 0 0 0 0 0 0 0 0 0 0 0 0 0 0 0 0 0 0 0 0 0 0 0 0
0 0 0 0 0 0 0 0 0 0 0 0 0 0 0 0 0 0 0 0 0 0 0 0 0 0 0 0 0 0 0 0 0 0 0 0 0 0 0 0 0 0 0
0 0 0 0 0 0 0 0 0 0 0 0 0 0 0 0 0 0 0 0 0 0 0 0 0 0 0 0 0 0 0 0 0 0 0 0 0 0 0 0 0 0 0
0 0 0 0 0 0 0 0 0 0 0 0 0 0 0 0 0 0 0 0 0 0 0 0 0 0 0 0 0 0 0 0 0 0 0 0 0 0 0 0 0 0 0
0 0 0 0 0 0 0 0 0 0 0 0 0 0 0 0 0 0 0 0 0 0 0 0 0 0 0 0 0 0 0 0 0 0 0 0 0 0 0 0 0 0 0
0 0 0 0 0 0 0 0 0 0 0 0 0 0 0 0 0 0 0 0 0 0 0 0 0 0 0 0 0 0 0 0 0 0 0 0 0 0 0 0 0 0 0
0 0 0 0 0 0 0 0 0 0 0 0 0 0 0 0 0 0 0 0 0 0 0 0 0 0 0 0 0 0 0 0 0 0 0 0 0 0 0 0 0 0 0
0 0 0 0 0 0 0 0 0 0 0 0 0 0 0 0 0 0 0 0 0 0 0 0 0 0 0 0 0 0 0 0 0 0 0 0 0 0 0 0 0 0 0
0 0 0 0 0 0 0 0 0 0 0 0 0 0 0 0 0 0 0 0 0 0 0 0 0 0 0 0 0 0 0 0 0 0 0 0 0 0 0 0 0 0 0
0 0 0 0 0 0 0 0 0 0 0 0 0 0 0 0 0 0 0 0 0 0 0 0 0 0 0 0 0 0 0 0 0 0 0 0 0 0 0 0 0 0 0
0 0 0 0 0 0 0 0 0 0 0 0 0 0 0 0 0 0 0 0 0 0 0 0 0 0 0 0 0 0 0 0 0 0 0 0 0 0 0 0 0 0 0
0 0 0 0 0 0 0 0 0 0 0 0 0 0 0 0 0 0 0 0 0 0 0 0 0 0 0 0 0 0 0 0 0 0 0 0 0 0 0 0 0 0 0
Wind_Speed
3 2 2 2 2 2 2 2 2 2 2 2 2 2 1 1 1 1 1 0 1 1 1 1 1 0 1 1 1 1 1 1 1 2 2 2 3 3 3 3 3 2 3
4 2 2 2 2 2 2 2 3 2 2 2 1 1 1 1 0 0 0 0 0 1 1 1 1 1 1 1 1 0 1 1 1 1 2 2 2 2 2 2 2 3 3
5 4 3 2 2 2 3 2 2 2 2 2 2 2 1 1 1 0 0 0 0 1 1 1 1 1 1 1 1 1 1 1 1 1 2 2 2 2 2 2 2 3 3
5 4 4 3 2 2 2 2 2 2 2 3 3 3 2 1 1 1 1 1 0 1 1 1 1 2 2 2 2 2 2 2 2 1 2 2 2 2 3 2 2 3 4
5 4 4 3 2 2 2 2 2 2 2 2 3 3 2 1 1 1 1 1 1 1 1 1 2 2 2 2 2 2 2 2 2 2 1 2 2 3 3 4 3 3 3
3 3 3 2 2 2 2 2 3 2 2 2 2 3 3 3 2 2 2 1 1 1 1 1 2 2 2 2 2 3 3 3 3 2 2 2 2 2 3 4 4 4 4
2 2 3 3 3 2 2 2 3 2 2 2 2 2 3 3 3 2 2 2 1 1 2 2 2 2 2 3 3 3 3 3 4 4 3 3 3 3 3 3 4 5 4
2 2 2 3 3 2 2 2 2 2 2 2 1 1 2 2 2 2 2 3 2 2 2 3 3 3 3 3 3 3 3 3 4 4 4 3 3 3 3 3 3 4 4
2 2 2 2 2 3 2 2 2 2 2 2 2 2 2 2 2 3 3 2 2 2 3 3 3 3 3 3 3 3 3 3 4 4 4 4 3 3 3 3 3 4 5
2 2 2 2 2 2 2 2 2 2 1 1 1 1 1 2 2 2 3 3 3 3 3 3 3 3 3 3 4 3 3 4 4 3 4 4 3 3 3 4 4 4 5
2 2 1 1 1 1 1 2 2 2 1 1 1 2 1 2 2 2 3 3 3 3 3 3 4 4 4 4 4 4 4 5 4 4 5 5 4 4 4 3 4 4 4
2 2 1 1 1 1 1 2 2 2 2 2 2 2 2 2 2 3 3 3 4 3 3 4 4 4 4 4 5 5 5 5 5 5 5 5 4 5 4 4 5 4 5
2 2 2 2 2 2 1 2 2 2 2 2 2 2 2 2 3 3 3 3 3 4 3 4 4 4 4 4 5 5 5 5 5 5 6 5 5 5 5 5 5 4 4
3 3 3 2 2 2 2 2 2 2 2 2 2 2 2 3 3 3 3 3 3 4 4 4 4 4 4 4 5 5 5 5 5 5 5 6 6 6 6 5 5 5 5
4 4 3 3 2 2 3 2 2 2 2 2 2 2 2 3 3 3 3 3 3 3 4 4 4 4 4 4 5 5 5 5 5 5 5 6 6 6 6 5 5 5 5
5 4 4 3 3 3 3 3 3 2 2 2 2 2 2 2 3 3 3 3 3 3 4 4 4 4 4 5 6 5 5 5 5 5 5 5 6 6 7 8 8 7 6
5 5 4 4 4 3 3 3 3 2 2 2 2 2 2 3 3 3 3 3 4 4 4 4 4 4 5 6 7 6 5 5 5 5 5 4 4 5 5 6 7 7 8
5 4 4 4 3 3 3 3 2 2 2 2 3 3 3 3 3 3 3 4 4 4 4 4 4 5 5 6 7 6 6 5 5 6 6 6 6 5 5 5 6 6 7
4 4 3 3 2 2 2 2 2 2 2 3 3 3 3 3 4 4 4 4 4 4 4 4 4 5 5 6 7 6 4 4 5 5 6 6 6 7 6 5 6 6 6
2 2 2 2 2 2 2 2 3 3 3 4 3 3 3 4 4 4 4 4 4 5 4 4 5 5 5 6 7 6 3 4 4 4 5 7 8 8 7 6 6 7 6
2 1 2 2 2 2 2 3 3 3 4 3 3 3 3 4 4 4 4 4 4 4 4 5 5 5 5 6 7 7 4 4 4 4 4 5 8 9 9 8 6 6 4
1 1 1 2 2 1 2 3 3 3 3 3 3 3 3 3 3 3 3 4 4 4 4 4 4 4 4 5 6 7 7 6 5 5 4 5 8 9 9 7 6 5 4
2 1 1 2 2 1 2 3 3 3 3 3 3 3 3 3 3 3 3 3 3 3 4 3 3 3 3 4 6 7 7 7 5 5 7 7 8 8 6 6 5 3 3
1 1 1 2 2 2 2 3 3 3 3 3 3 3 3 3 2 2 3 3 3 3 3 3 4 3 3 3 3 3 4 5 5 4 5 7 7 5 4 3 3 3 3
1 1 2 3 3 3 3 3 3 3 3 3 3 3 3 3 3 3 3 4 4 4 5 4 4 4 5 5 7 5 4 3 3 3 2 2 2 3 3 2 2 2 2
2 2 3 3 3 3 3 3 3 3 3 3 3 3 3 3 3 3 3 4 6 7 8 8 6 5 7 8 8 8 7 6 4 3 2 3 3 3 3 3 3 3 3
Wind_Direction
250 244 246 226 209 196 188 187 176 174 171 170 172 175 173 143 138 111 87 150 146 150 161 149 164 211 214 253 277 288 291 316 306 275 274 267 253 257 270 270 270 278 280
240 228 227 206 196 190 189 188 185 178 177 176 167 177 170 153 143 83 96 44 152 171 186 170 176 207 216 208 252 298 284 304 306 287 273 273 247 235 267 273 274 276 278
237 229 215 206 190 187 192 187 184 178 174 164 145 141 143 161 172 116 22 353 310 203 205 196 192 207 213 217 226 231 259 250 266 288 286 273 271 306 249 260 275 287 285
230 227 218 205 199 196 185 180 175 173 169 166 167 172 180 187 222 252 268 277 266 257 226 218 211 207 216 224 225 234 246 235 230 263 293 297 310 279 286 263 265 281 279
226 222 218 209 199 188 176 172 163 162 163 170 178 182 188 193 204 217 238 253 235 252 243 231 227 223 225 225 225 229 233 234 235 239 265 278 271 268 270 279 284 281 271
225 218 206 194 189 177 168 166 161 162 165 173 181 190 193 198 201 214 231 253 253 250 250 235 235 232 233 232 234 231 230 238 241 245 247 255 257 262 270 274 282 286 282
211 203 198 194 192 182 178 178 170 172 177 180 190 207 213 211 212 220 229 243 251 257 255 243 236 235 236 236 237 232 234 236 237 238 246 253 262 269 274 273 285 289 291
211 208 210 209 204 202 200 198 191 187 188 192 199 213 222 225 226 229 241 241 249 255 253 248 241 240 240 236 233 232 233 235 239 244 247 255 262 266 265 271 281 290 282
218 217 215 219 221 218 219 217 208 199 199 205 204 207 220 230 235 236 239 245 251 261 253 248 245 243 241 239 237 237 234 235 238 244 247 253 258 262 263 263 261 269 276
237 227 215 218 238 242 227 220 219 213 214 212 215 222 234 243 247 243 244 246 255 257 255 249 249 243 242 241 238 243 241 238 240 243 245 249 257 259 257 255 260 261 267
255 251 245 239 242 260 250 228 223 224 225 225 223 219 229 244 249 249 253 251 253 255 252 249 250 245 240 240 239 242 243 241 243 243 242 246 251 252 255 256 255 258 261
261 271 274 277 267 269 285 267 242 235 240 237 240 239 236 239 245 254 259 256 253 253 254 252 250 248 244 241 240 242 242 240 243 245 246 248 249 252 255 253 256 259 261
275 272 275 265 258 262 270 280 272 257 247 240 234 240 247 249 254 261 263 258 254 255 254 250 248 250 247 246 246 245 245 245 246 246 246 248 248 252 256 257 259 263 267
271 269 264 257 255 262 265 269 276 273 251 236 232 243 253 257 259 263 262 256 254 256 256 256 252 253 250 247 248 251 250 250 251 251 250 250 247 250 256 256 259 265 268
269 264 265 266 261 265 269 271 274 272 260 241 235 247 262 268 265 262 259 257 257 259 261 262 261 259 254 249 252 251 249 249 253 254 253 252 252 256 259 260 260 258 261
265 264 264 264 263 263 268 272 274 272 260 249 249 254 258 262 264 265 262 257 255 258 257 260 262 265 263 268 264 260 251 246 246 252 255 257 250 254 258 261 262 259 254
267 263 260 260 264 265 257 259 266 262 248 250 259 262 256 256 262 267 264 259 258 258 258 261 262 266 272 275 270 265 257 249 247 249 253 257 257 253 259 263 262 261 260
266 265 263 264 272 275 265 258 256 245 238 245 255 260 258 257 263 264 262 266 264 258 258 261 263 268 273 277 277 274 257 254 251 249 248 251 254 252 257 260 262 262 260
265 268 267 264 270 269 264 251 249 251 251 257 263 266 259 258 260 259 262 265 264 262 260 260 263 266 274 277 278 277 261 256 257 256 253 251 255 257 253 252 258 264 267
269 271 274 267 264 270 257 241 246 248 259 266 269 269 262 257 257 260 264 264 260 261 263 265 264 264 269 274 276 273 259 258 262 261 258 252 257 259 250 245 249 256 263
271 266 262 259 262 264 247 246 251 258 272 277 274 270 261 258 259 263 262 261 258 260 260 263 264 263 266 271 274 270 260 254 259 259 260 259 259 257 255 254 254 260 267
276 264 264 276 282 269 245 253 263 278 283 278 272 270 268 265 260 258 263 261 257 257 258 259 266 266 266 268 273 269 265 264 256 257 263 266 263 258 256 255 259 262 262
269 278 272 294 305 295 261 260 278 290 280 274 272 274 277 273 267 258 258 258 253 253 258 256 264 275 277 275 276 270 268 266 259 259 264 268 265 262 257 258 254 246 241
266 275 266 278 290 294 286 276 285 287 271 264 270 273 273 272 270 266 261 257 254 252 256 259 266 276 280 277 276 270 271 266 263 262 263 262 261 260 262 255 242 239 242
265 252 252 264 279 292 294 300 296 281 268 268 270 274 271 274 275 270 264 262 259 258 259 259 261 266 270 275 286 280 266 259 259 264 260 253 246 245 242 245 249 249 244
273 268 268 273 283 288 292 300 300 287 269 267 271 273 274 275 273 275 280 273 270 279 275 272 274 273 274 288 284 281 279 274 259 245 237 241 246 250 251 249 256 254 252